HULIANWANG DIGUI-52

导读 | 豆包AI

HULIANWANG DIGUI-52卫星于北京时间2025年8月4日由中国发射,是中国低轨互联网卫星星座的重要组成部分,承担着拓展全球网络覆盖、提升通信服务能力的任务。它将与同星座其他卫星协同组网,为不同区域用户提供高速稳定的卫星互联网接入,推动天地一体化通信网络建设,助力卫星通信产业发展。

基本信息
目录编号:
65109
目录名称:
HULIANWANG DIGUI-52
国际标识:
2025-168D
轨道中心:
EARTH
卫星名称:
HULIANWANG DIGUI-52
卫星全名:
HULIANWANG DIGUI-52
卫星状态:
在轨 (已飞行222 天)
发射日期:
2025-08-04 UTC
国别 :
中国 (CN)
星等 :
--
轨道信息
数据来源 国际轨道数据 AOE轨道数据
星历时间 2026-03-13T23:47:44+0800
9小时前
查看轨道信息
2026-03-13T16:00:00+0800
17小时前
查看轨道信息
半长轴 7527.393km 7527.492km
偏心率 0.0009695 0.0009428
轨道倾角 50.004° 50.002°
近地点辐角 175.562° 174.417°
升交点赤经 308.367° 309.532°
平近点角 184.534° 70.251°
近地点 1141.958km 1142.258km
远地点 1156.554km 1156.452km
周期 108.324分钟 108.327分钟
每日圈数 13.293395 13.293133
详细信息
使用方式:
暂无
2D轨道图
3D轨道图
轨道高度分析图
轨道倾角分析图
轨道综合分析图
查看轨道综合分析图